Wetterdaten: Montag, 15.10.2018
Datum Zeit Temp. A. Aussen2m Boden Feuchte A. Feuchte 2 Luftdruck Regen Wind Richtung Richtung Sonnenschein
15.10.2018 00:00 19,7 C 19,5 C 10,8 C 51 % 59 % 1006,6 hPa 0,0 l/m 16,3 km/h (3 Bft) SO 125 0 min
15.10.2018 00:05 19,7 C 19,5 C 10,8 C 51 % 59 % 1006,6 hPa 0,0 l/m 18,8 km/h (3 Bft) SO 135 0 min
15.10.2018 00:10 19,5 C 19,5 C 10,8 C 51 % 59 % 1006,6 hPa 0,0 l/m 15,1 km/h (3 Bft) SO 135 0 min
15.10.2018 00:15 19,5 C 19,4 C 10,8 C 52 % 59 % 1006,6 hPa 0,0 l/m 16,3 km/h (3 Bft) S-SW 195 0 min
15.10.2018 00:20 19,3 C 19,4 C 10,8 C 52 % 59 % 1007,6 hPa 0,0 l/m 12,1 km/h (2 Bft) SO 135 0 min
15.10.2018 00:25 19,3 C 19,3 C 10,8 C 52 % 59 % 1007,6 hPa 0,0 l/m 12,1 km/h (2 Bft) O-SO 105 0 min
15.10.2018 00:30 19,2 C 19,2 C 10,8 C 52 % 59 % 1007,6 hPa 0,0 l/m 11,5 km/h (2 Bft) SO 140 0 min
15.10.2018 00:35 19,2 C 19,1 C 10,8 C 53 % 59 % 1006,6 hPa 0,0 l/m 14,5 km/h (3 Bft) S-SO 150 0 min
15.10.2018 00:40 19,1 C 19,0 C 10,8 C 53 % 60 % 1006,6 hPa 0,0 l/m 12,1 km/h (2 Bft) S-SO 160 0 min
15.10.2018 00:45 19,0 C 19,0 C 10,8 C 53 % 60 % 1006,6 hPa 0,0 l/m 12,7 km/h (3 Bft) SO 140 0 min
15.10.2018 00:50 19,0 C 19,0 C 10,8 C 53 % 60 % 1006,6 hPa 0,0 l/m 13,9 km/h (3 Bft) S 185 0 min
15.10.2018 00:55 19,0 C 18,9 C 10,8 C 53 % 61 % 1006,6 hPa 0,0 l/m 12,1 km/h (2 Bft) O-SO 115 0 min
15.10.2018 01:00 19,1 C 18,9 C 10,8 C 53 % 61 % 1006,6 hPa 0,0 l/m 15,1 km/h (3 Bft) SO 145 0 min
15.10.2018 01:05 19,1 C 18,9 C 10,8 C 53 % 61 % 1007,6 hPa 0,0 l/m 13,9 km/h (3 Bft) SO 140 0 min
15.10.2018 01:10 19,2 C 18,9 C 10,8 C 53 % 61 % 1007,6 hPa 0,0 l/m 19,4 km/h (3 Bft) SO 140 0 min
15.10.2018 01:15 19,1 C 19,0 C 10,8 C 53 % 61 % 1007,6 hPa 0,0 l/m 16,9 km/h (3 Bft) S-SO 165 0 min
15.10.2018 01:20 19,1 C 18,9 C 10,8 C 53 % 61 % 1006,6 hPa 0,0 l/m 14,5 km/h (3 Bft) S-SW 210 0 min
15.10.2018 01:25 19,0 C 18,9 C 10,8 C 53 % 61 % 1006,6 hPa 0,0 l/m 14,5 km/h (3 Bft) SO 135 0 min
15.10.2018 01:30 18,9 C 18,9 C 10,8 C 54 % 61 % 1006,6 hPa 0,0 l/m 17,6 km/h (3 Bft) SO 145 0 min
15.10.2018 01:35 18,8 C 18,8 C 10,8 C 54 % 61 % 1007,6 hPa 0,0 l/m 11,5 km/h (2 Bft) SO 145 0 min
15.10.2018 01:40 18,7 C 18,7 C 10,8 C 54 % 61 % 1007,7 hPa 0,0 l/m 13,3 km/h (3 Bft) S-SO 160 0 min
15.10.2018 01:45 18,6 C 18,6 C 10,8 C 55 % 61 % 1007,7 hPa 0,0 l/m 10,9 km/h (2 Bft) SO 135 0 min
15.10.2018 01:50 18,7 C 18,6 C 10,8 C 55 % 62 % 1007,7 hPa 0,0 l/m 14,5 km/h (3 Bft) S-SO 150 0 min
15.10.2018 01:55 18,7 C 18,6 C 10,8 C 55 % 62 % 1007,7 hPa 0,0 l/m 13,3 km/h (3 Bft) S-SO 150 0 min
15.10.2018 02:00 18,7 C 18,6 C 10,8 C 55 % 62 % 1007,7 hPa 0,0 l/m 10,3 km/h (2 Bft) S-SO 150 0 min
15.10.2018 02:05 18,9 C 18,6 C 10,8 C 54 % 62 % 1007,6 hPa 0,0 l/m 14,5 km/h (3 Bft) S-SO 155 0 min
15.10.2018 02:10 18,9 C 18,7 C 10,8 C 54 % 61 % 1007,6 hPa 0,0 l/m 15,7 km/h (3 Bft) SO 130 0 min
15.10.2018 02:15 19,0 C 18,8 C 10,8 C 54 % 61 % 1007,6 hPa 0,0 l/m 14,5 km/h (3 Bft) SO 145 0 min
15.10.2018 02:20 19,0 C 18,8 C 10,8 C 54 % 61 % 1006,6 hPa 0,0 l/m 13,3 km/h (3 Bft) SO 140 0 min
15.10.2018 02:25 19,0 C 18,9 C 10,8 C 54 % 61 % 1006,6 hPa 0,0 l/m 12,1 km/h (2 Bft) S-SO 150 0 min
15.10.2018 02:30 19,1 C 18,9 C 10,8 C 53 % 61 % 1006,6 hPa 0,0 l/m 11,5 km/h (2 Bft) S-SO 150 0 min
15.10.2018 02:35 19,0 C 18,9 C 10,8 C 53 % 61 % 1007,6 hPa 0,0 l/m 11,5 km/h (2 Bft) S-SO 150 0 min
15.10.2018 02:40 19,1 C 19,0 C 10,8 C 53 % 61 % 1007,6 hPa 0,0 l/m 11,5 km/h (2 Bft) S-SO 155 0 min
15.10.2018 02:45 19,1 C 19,0 C 10,8 C 53 % 61 % 1007,6 hPa 0,0 l/m 16,9 km/h (3 Bft) S-SO 155 0 min
15.10.2018 02:50 19,1 C 19,0 C 10,8 C 53 % 61 % 1006,6 hPa 0,0 l/m 13,3 km/h (3 Bft) S 170 0 min
15.10.2018 02:55 19,0 C 19,0 C 10,8 C 53 % 61 % 1006,6 hPa 0,0 l/m 9,7 km/h (2 Bft) SO 135 0 min
15.10.2018 03:00 19,0 C 19,0 C 10,8 C 53 % 60 % 1006,6 hPa 0,0 l/m 11,5 km/h (2 Bft) S-SO 150 0 min
15.10.2018 03:05 18,9 C 18,9 C 10,8 C 53 % 60 % 1007,6 hPa 0,0 l/m 9,1 km/h (2 Bft) S-SO 160 0 min
15.10.2018 03:10 18,9 C 18,8 C 10,8 C 53 % 61 % 1007,6 hPa 0,0 l/m 10,9 km/h (2 Bft) S 180 0 min
15.10.2018 03:15 18,8 C 18,8 C 10,8 C 53 % 61 % 1007,6 hPa 0,0 l/m 7,9 km/h (2 Bft) SO 135 0 min
15.10.2018 03:20 18,7 C 18,7 C 10,8 C 54 % 61 % 1007,7 hPa 0,0 l/m 7,3 km/h (2 Bft) SO 145 0 min
15.10.2018 03:25 18,7 C 18,6 C 10,8 C 54 % 61 % 1007,7 hPa 0,0 l/m 7,3 km/h (2 Bft) O-SO 105 0 min
15.10.2018 03:30 18,5 C 18,6 C 10,8 C 54 % 61 % 1007,7 hPa 0,0 l/m 9,1 km/h (2 Bft) S 180 0 min
15.10.2018 03:35 18,5 C 18,4 C 10,8 C 54 % 61 % 1006,6 hPa 0,0 l/m 5,4 km/h (2 Bft) SO 135 0 min
15.10.2018 03:40 18,4 C 18,4 C 10,8 C 55 % 62 % 1006,7 hPa 0,0 l/m 7,3 km/h (2 Bft) S 185 0 min
15.10.2018 03:45 18,3 C 18,3 C 10,8 C 55 % 62 % 1006,7 hPa 0,0 l/m 5,4 km/h (2 Bft) SO 130 0 min
15.10.2018 03:50 18,3 C 18,3 C 10,8 C 55 % 62 % 1007,7 hPa 0,0 l/m 3,6 km/h (1 Bft) SO 140 0 min
15.10.2018 03:55 18,3 C 18,2 C 10,8 C 55 % 62 % 1007,7 hPa 0,0 l/m 4,8 km/h (1 Bft) S-SO 150 0 min
15.10.2018 04:00 18,3 C 18,2 C 10,8 C 55 % 63 % 1007,7 hPa 0,0 l/m 4,8 km/h (1 Bft) S-SO 155 0 min
15.10.2018 04:05 18,4 C 18,2 C 10,8 C 55 % 62 % 1007,7 hPa 0,0 l/m 6,1 km/h (2 Bft) S-SO 165 0 min
15.10.2018 04:10 18,4 C 18,2 C 10,8 C 55 % 63 % 1007,7 hPa 0,0 l/m 4,8 km/h (1 Bft) SO 135 0 min
15.10.2018 04:15 18,4 C 18,2 C 10,8 C 55 % 63 % 1007,7 hPa 0,0 l/m 3,0 km/h (1 Bft) S-SO 155 0 min
15.10.2018 04:20 18,4 C 18,2 C 10,8 C 55 % 63 % 1006,7 hPa 0,0 l/m 6,1 km/h (2 Bft) S-SO 155 0 min
15.10.2018 04:25 18,4 C 18,2 C 10,8 C 55 % 63 % 1006,7 hPa 0,0 l/m 9,7 km/h (2 Bft) S-SO 150 0 min
15.10.2018 04:30 18,5 C 18,3 C 10,8 C 55 % 63 % 1006,6 hPa 0,0 l/m 5,4 km/h (2 Bft) O-SO 105 0 min
15.10.2018 04:35 18,5 C 18,3 C 10,8 C 55 % 62 % 1006,6 hPa 0,0 l/m 6,7 km/h (2 Bft) S 170 0 min
15.10.2018 04:40 18,5 C 18,3 C 10,8 C 54 % 62 % 1006,6 hPa 0,0 l/m 8,5 km/h (2 Bft) SO 135 0 min
15.10.2018 04:45 18,6 C 18,3 C 10,8 C 54 % 62 % 1006,6 hPa 0,0 l/m 10,3 km/h (2 Bft) S 175 0 min
15.10.2018 04:50 18,5 C 18,3 C 10,8 C 55 % 62 % 1007,7 hPa 0,0 l/m 4,2 km/h (1 Bft) O-SO 110 0 min
15.10.2018 04:55 18,4 C 18,3 C 10,8 C 55 % 62 % 1007,7 hPa 0,0 l/m 7,9 km/h (2 Bft) SO 135 0 min
15.10.2018 05:00 18,5 C 18,3 C 10,8 C 54 % 62 % 1007,7 hPa 0,0 l/m 6,7 km/h (2 Bft) O-SO 120 0 min
15.10.2018 05:05 18,5 C 18,4 C 10,8 C 54 % 62 % 1007,7 hPa 0,0 l/m 6,1 km/h (2 Bft) SO 130 0 min
15.10.2018 05:10 18,4 C 18,3 C 10,8 C 54 % 62 % 1007,7 hPa 0,0 l/m 2,4 km/h (1 Bft) SO 135 0 min
15.10.2018 05:15 18,4 C 18,3 C 10,8 C 54 % 62 % 1007,7 hPa 0,0 l/m 6,1 km/h (2 Bft) S 170 0 min
15.10.2018 05:20 18,3 C 18,2 C 10,8 C 54 % 62 % 1007,7 hPa 0,0 l/m 3,0 km/h (1 Bft) SO 145 0 min
15.10.2018 05:25 18,3 C 18,2 C 10,8 C 54 % 62 % 1007,7 hPa 0,0 l/m 5,4 km/h (2 Bft) O-SO 120 0 min
15.10.2018 05:30 18,3 C 18,2 C 10,8 C 54 % 62 % 1007,7 hPa 0,0 l/m 6,1 km/h (2 Bft) S-SO 160 0 min
15.10.2018 05:35 18,3 C 18,2 C 10,8 C 54 % 62 % 1008,7 hPa 0,0 l/m 6,7 km/h (2 Bft) S-SO 165 0 min
15.10.2018 05:40 18,3 C 18,2 C 10,8 C 54 % 61 % 1008,7 hPa 0,0 l/m 5,4 km/h (2 Bft) SO 145 0 min
15.10.2018 05:45 18,4 C 18,2 C 10,8 C 53 % 61 % 1008,7 hPa 0,0 l/m 9,7 km/h (2 Bft) S-SW 200 0 min
15.10.2018 05:50 18,4 C 18,2 C 10,8 C 53 % 61 % 1007,7 hPa 0,0 l/m 11,5 km/h (2 Bft) S 175 0 min
15.10.2018 05:55 18,6 C 18,3 C 10,8 C 52 % 61 % 1007,7 hPa 0,0 l/m 12,7 km/h (3 Bft) O 80 0 min
15.10.2018 06:00 18,6 C 18,4 C 10,8 C 52 % 61 % 1007,7 hPa 0,0 l/m 9,7 km/h (2 Bft) S-SO 150 0 min
15.10.2018 06:05 18,6 C 18,4 C 10,8 C 52 % 61 % 1007,7 hPa 0,0 l/m 8,5 km/h (2 Bft) SO 140 0 min
15.10.2018 06:10 18,5 C 18,4 C 10,8 C 52 % 60 % 1007,7 hPa 0,0 l/m 12,1 km/h (2 Bft) S 175 0 min
15.10.2018 06:15 18,5 C 18,4 C 10,8 C 52 % 60 % 1007,7 hPa 0,0 l/m 10,9 km/h (2 Bft) S-SO 165 0 min
15.10.2018 06:20 18,5 C 18,4 C 10,8 C 52 % 60 % 1007,7 hPa 0,0 l/m 10,3 km/h (2 Bft) S-SO 160 0 min
15.10.2018 06:25 18,4 C 18,3 C 10,8 C 52 % 60 % 1007,7 hPa 0,0 l/m 7,9 km/h (2 Bft) S 180 0 min
15.10.2018 06:30 18,5 C 18,3 C 10,8 C 52 % 60 % 1007,7 hPa 0,0 l/m 9,7 km/h (2 Bft) S-SO 165 0 min
15.10.2018 06:35 18,5 C 18,3 C 10,8 C 52 % 60 % 1007,7 hPa 0,0 l/m 10,3 km/h (2 Bft) SO 130 0 min
15.10.2018 06:40 18,4 C 18,3 C 10,8 C 52 % 60 % 1007,7 hPa 0,0 l/m 10,3 km/h (2 Bft) SO 135 0 min
15.10.2018 06:45 18,4 C 18,3 C 10,8 C 52 % 60 % 1007,7 hPa 0,0 l/m 14,5 km/h (3 Bft) S-SO 165 0 min
15.10.2018 06:50 18,3 C 18,2 C 10,8 C 52 % 60 % 1008,7 hPa 0,0 l/m 10,9 km/h (2 Bft) SO 130 0 min
15.10.2018 06:55 18,3 C 18,2 C 10,8 C 52 % 60 % 1008,7 hPa 0,0 l/m 10,3 km/h (2 Bft) S-SO 155 0 min
15.10.2018 07:00 18,2 C 18,2 C 10,8 C 53 % 60 % 1008,7 hPa 0,0 l/m 7,3 km/h (2 Bft) S 175 0 min
15.10.2018 07:05 18,1 C 18,2 C 10,8 C 53 % 61 % 1008,7 hPa 0,0 l/m 9,7 km/h (2 Bft) SO 145 0 min
15.10.2018 07:10 18,1 C 18,1 C 10,8 C 53 % 61 % 1008,7 hPa 0,0 l/m 10,9 km/h (2 Bft) SO 145 0 min
15.10.2018 07:15 18,1 C 18,1 C 10,8 C 54 % 61 % 1008,7 hPa 0,0 l/m 8,5 km/h (2 Bft) S-SO 165 0 min
15.10.2018 07:20 18,0 C 18,0 C 10,8 C 54 % 61 % 1008,7 hPa 0,0 l/m 10,9 km/h (2 Bft) S-SO 165 0 min
15.10.2018 07:25 17,9 C 18,0 C 10,8 C 54 % 61 % 1008,7 hPa 0,0 l/m 7,9 km/h (2 Bft) S 180 0 min
15.10.2018 07:30 17,9 C 17,9 C 10,8 C 54 % 61 % 1008,7 hPa 0,0 l/m 8,5 km/h (2 Bft) S-SO 160 0 min
15.10.2018 07:35 17,8 C 17,8 C 10,8 C 54 % 61 % 1008,7 hPa 0,0 l/m 8,5 km/h (2 Bft) S-SO 155 0 min
15.10.2018 07:40 17,8 C 17,8 C 10,8 C 54 % 61 % 1008,7 hPa 0,0 l/m 9,1 km/h (2 Bft) SO 140 0 min
15.10.2018 07:45 17,7 C 17,6 C 10,8 C 54 % 61 % 1008,7 hPa 0,0 l/m 12,1 km/h (2 Bft) S-SO 160 0 min
15.10.2018 07:50 17,6 C 17,6 C 10,8 C 55 % 62 % 1008,7 hPa 0,0 l/m 5,4 km/h (2 Bft) O-SO 115 0 min
15.10.2018 07:55 17,4 C 17,5 C 10,8 C 55 % 62 % 1008,7 hPa 0,0 l/m 6,1 km/h (2 Bft) SO 135 0 min
15.10.2018 08:00 17,3 C 17,4 C 10,8 C 55 % 62 % 1008,7 hPa 0,0 l/m 9,1 km/h (2 Bft) S-SO 155 0 min
15.10.2018 08:05 17,2 C 17,2 C 10,8 C 55 % 62 % 1008,7 hPa 0,0 l/m 7,3 km/h (2 Bft) S 170 0 min
15.10.2018 08:10 17,2 C 17,2 C 10,8 C 56 % 62 % 1008,7 hPa 0,0 l/m 9,7 km/h (2 Bft) SO 140 0 min
15.10.2018 08:15 17,1 C 17,1 C 10,8 C 56 % 63 % 1008,7 hPa 0,0 l/m 7,9 km/h (2 Bft) NO 45 0 min
15.10.2018 08:20 16,9 C 17,0 C 10,8 C 56 % 63 % 1008,7 hPa 0,0 l/m 7,3 km/h (2 Bft) O-SO 115 0 min
15.10.2018 08:25 16,9 C 17,0 C 10,8 C 57 % 63 % 1008,7 hPa 0,0 l/m 8,5 km/h (2 Bft) SO 135 0 min
15.10.2018 08:30 16,8 C 16,9 C 10,8 C 57 % 64 % 1008,7 hPa 0,0 l/m 5,4 km/h (2 Bft) S-SO 150 0 min
15.10.2018 08:35 16,9 C 16,8 C 10,8 C 57 % 64 % 1008,7 hPa 0,0 l/m 6,7 km/h (2 Bft) SO 130 0 min
15.10.2018 08:40 17,1 C 16,8 C 10,8 C 57 % 65 % 1008,7 hPa 0,0 l/m 9,1 km/h (2 Bft) S-SO 155 0 min
15.10.2018 08:45 17,2 C 16,7 C 10,8 C 57 % 65 % 1008,7 hPa 0,0 l/m 7,9 km/h (2 Bft) O-SO 110 0 min
15.10.2018 08:50 17,4 C 16,8 C 10,8 C 56 % 65 % 1009,7 hPa 0,0 l/m 6,7 km/h (2 Bft) S-SO 160 0 min
15.10.2018 08:55 17,4 C 16,8 C 10,8 C 56 % 65 % 1009,7 hPa 0,0 l/m 9,1 km/h (2 Bft) SO 145 0 min
15.10.2018 09:00 17,5 C 16,9 C 10,8 C 56 % 65 % 1009,7 hPa 0,0 l/m 9,7 km/h (2 Bft) SO 125 0 min
15.10.2018 09:05 17,5 C 17,0 C 10,8 C 56 % 65 % 1008,7 hPa 0,0 l/m 9,1 km/h (2 Bft) S 180 0 min
15.10.2018 09:10 17,6 C 17,2 C 10,8 C 55 % 64 % 1008,7 hPa 0,0 l/m 16,9 km/h (3 Bft) S-SW 205 0 min
15.10.2018 09:15 17,7 C 17,3 C 10,8 C 55 % 64 % 1008,7 hPa 0,0 l/m 14,5 km/h (3 Bft) W-SW 255 0 min
15.10.2018 09:20 17,8 C 17,4 C 10,8 C 55 % 63 % 1009,7 hPa 0,0 l/m 14,5 km/h (3 Bft) SO 145 0 min
15.10.2018 09:25 17,9 C 17,6 C 10,8 C 54 % 63 % 1009,7 hPa 0,0 l/m 16,9 km/h (3 Bft) SO 125 0 min
15.10.2018 09:30 18,1 C 17,8 C 10,8 C 54 % 63 % 1009,7 hPa 0,0 l/m 20,0 km/h (4 Bft) O-SO 120 0 min
15.10.2018 09:35 18,3 C 18,0 C 10,8 C 53 % 62 % 1009,7 hPa 0,0 l/m 14,5 km/h (3 Bft) O-SO 115 0 min
15.10.2018 09:40 18,5 C 18,1 C 10,8 C 53 % 62 % 1009,7 hPa 0,0 l/m 12,7 km/h (3 Bft) S 175 0 min
15.10.2018 09:45 18,6 C 18,4 C 10,8 C 52 % 61 % 1009,7 hPa 0,0 l/m 13,9 km/h (3 Bft) SO 145 0 min
15.10.2018 09:50 18,9 C 18,6 C 10,8 C 52 % 61 % 1009,7 hPa 0,0 l/m 16,9 km/h (3 Bft) S 185 1 min
15.10.2018 09:55 19,3 C 18,9 C 10,8 C 51 % 60 % 1009,6 hPa 0,0 l/m 12,1 km/h (2 Bft) S-SO 165 5 min
15.10.2018 10:00 19,5 C 19,2 C 10,8 C 50 % 59 % 1009,6 hPa 0,0 l/m 15,1 km/h (3 Bft) S-SO 160 4 min
15.10.2018 10:05 19,9 C 19,4 C 10,8 C 48 % 59 % 1009,6 hPa 0,0 l/m 15,1 km/h (3 Bft) S 180 5 min
15.10.2018 10:10 20,1 C 19,6 C 10,8 C 47 % 58 % 1009,6 hPa 0,0 l/m 16,9 km/h (3 Bft) SO 135 6 min
15.10.2018 10:15 20,2 C 19,8 C 10,8 C 47 % 57 % 1009,6 hPa 0,0 l/m 20,6 km/h (4 Bft) SO 135 5 min
15.10.2018 10:20 20,5 C 20,0 C 10,8 C 47 % 58 % 1009,6 hPa 0,0 l/m 15,7 km/h (3 Bft) S 170 2 min
15.10.2018 10:25 20,6 C 20,2 C 10,8 C 46 % 57 % 1009,6 hPa 0,0 l/m 23,0 km/h (4 Bft) S 185 1 min
15.10.2018 10:30 20,7 C 20,4 C 10,8 C 45 % 55 % 1009,6 hPa 0,0 l/m 24,2 km/h (4 Bft) SO 135 5 min
15.10.2018 10:35 20,8 C 20,5 C 10,8 C 45 % 55 % 1009,6 hPa 0,0 l/m 24,2 km/h (4 Bft) SO 130 3 min
15.10.2018 10:40 21,2 C 20,8 C 10,8 C 44 % 54 % 1009,6 hPa 0,0 l/m 15,7 km/h (3 Bft) S-SO 165 6 min
15.10.2018 10:45 21,4 C 20,9 C 10,8 C 44 % 54 % 1009,6 hPa 0,0 l/m 18,2 km/h (3 Bft) SO 135 6 min
15.10.2018 10:50 21,5 C 21,1 C 10,8 C 44 % 53 % 1009,6 hPa 0,0 l/m 20,6 km/h (4 Bft) S-SO 160 4 min
15.10.2018 10:55 21,6 C 21,3 C 10,8 C 43 % 52 % 1009,6 hPa 0,0 l/m 20,0 km/h (4 Bft) S-SO 165 3 min
15.10.2018 11:00 21,7 C 21,4 C 10,8 C 43 % 52 % 1009,6 hPa 0,0 l/m 20,6 km/h (4 Bft) SO 130 8 min
15.10.2018 11:05 21,8 C 21,7 C 10,8 C 43 % 51 % 1009,6 hPa 0,0 l/m 18,8 km/h (3 Bft) S 170 5 min
15.10.2018 11:10 22,1 C 21,8 C 10,8 C 42 % 51 % 1009,6 hPa 0,0 l/m 14,5 km/h (3 Bft) S 185 5 min
15.10.2018 11:15 22,1 C 21,9 C 10,8 C 42 % 51 % 1009,6 hPa 0,0 l/m 19,4 km/h (3 Bft) S-SO 165 5 min
15.10.2018 11:20 22,1 C 22,0 C 10,8 C 42 % 51 % 1009,6 hPa 0,0 l/m 18,2 km/h (3 Bft) SO 125 5 min
15.10.2018 11:25 22,3 C 22,2 C 10,8 C 42 % 50 % 1009,6 hPa 0,0 l/m 16,9 km/h (3 Bft) SO 130 2 min
15.10.2018 11:30 22,4 C 22,4 C 10,8 C 41 % 50 % 1009,6 hPa 0,0 l/m 20,6 km/h (4 Bft) O-SO 115 6 min
15.10.2018 11:35 22,7 C 22,4 C 10,8 C 41 % 50 % 1009,6 hPa 0,0 l/m 15,1 km/h (3 Bft) S-SO 165 5 min
15.10.2018 11:40 22,5 C 22,6 C 10,8 C 41 % 49 % 1009,6 hPa 0,0 l/m 21,2 km/h (4 Bft) S-SO 150 5 min
15.10.2018 11:45 22,6 C 22,6 C 10,8 C 41 % 49 % 1009,6 hPa 0,0 l/m 16,9 km/h (3 Bft) S 170 5 min
15.10.2018 11:50 22,6 C 22,6 C 10,8 C 41 % 49 % 1010,6 hPa 0,0 l/m 20,6 km/h (4 Bft) S-SO 155 5 min
15.10.2018 11:55 22,7 C 22,8 C 10,8 C 41 % 49 % 1010,6 hPa 0,0 l/m 21,2 km/h (4 Bft) SO 140 5 min
15.10.2018 12:00 23,0 C 22,8 C 10,8 C 41 % 49 % 1010,6 hPa 0,0 l/m 16,9 km/h (3 Bft) O-SO 120 5 min
15.10.2018 12:05 23,0 C 23,0 C 10,8 C 41 % 49 % 1009,6 hPa 0,0 l/m 18,2 km/h (3 Bft) S-SO 165 5 min
15.10.2018 12:10 22,9 C 22,9 C 10,8 C 41 % 49 % 1009,6 hPa 0,0 l/m 18,8 km/h (3 Bft) S 175 1 min
15.10.2018 12:15 23,2 C 23,0 C 10,8 C 40 % 49 % 1009,6 hPa 0,0 l/m 18,2 km/h (3 Bft) S-SO 160 6 min
15.10.2018 12:20 23,3 C 23,1 C 10,8 C 40 % 49 % 1009,6 hPa 0,0 l/m 20,6 km/h (4 Bft) S-SO 160 4 min
15.10.2018 12:25 23,5 C 23,2 C 10,8 C 40 % 48 % 1009,6 hPa 0,0 l/m 22,4 km/h (4 Bft) S 185 5 min
15.10.2018 12:30 23,7 C 23,2 C 10,8 C 40 % 49 % 1009,6 hPa 0,0 l/m 15,7 km/h (3 Bft) SO 140 5 min
15.10.2018 12:35 23,9 C 23,5 C 10,8 C 39 % 48 % 1009,6 hPa 0,0 l/m 12,7 km/h (3 Bft) S 190 5 min
15.10.2018 12:40 23,8 C 23,6 C 10,8 C 39 % 47 % 1009,6 hPa 0,0 l/m 18,8 km/h (3 Bft) SW 225 6 min
15.10.2018 12:45 23,9 C 23,7 C 10,8 C 39 % 47 % 1009,6 hPa 0,0 l/m 18,2 km/h (3 Bft) S 185 5 min
15.10.2018 12:50 23,9 C 23,7 C 10,8 C 39 % 47 % 1009,6 hPa 0,0 l/m 15,1 km/h (3 Bft) S-SO 155 5 min
15.10.2018 12:55 24,2 C 23,9 C 10,8 C 39 % 47 % 1009,6 hPa 0,0 l/m 14,5 km/h (3 Bft) S 175 5 min
15.10.2018 13:00 24,2 C 23,8 C 10,8 C 39 % 46 % 1009,6 hPa 0,0 l/m 18,8 km/h (3 Bft) S-SO 160 5 min
15.10.2018 13:05 24,1 C 24,0 C 10,8 C 39 % 46 % 1009,6 hPa 0,0 l/m 12,7 km/h (3 Bft) S 185 5 min
15.10.2018 13:10 24,3 C 24,1 C 10,8 C 38 % 46 % 1009,6 hPa 0,0 l/m 21,2 km/h (4 Bft) SO 140 6 min
15.10.2018 13:15 24,4 C 24,2 C 10,8 C 38 % 45 % 1009,6 hPa 0,0 l/m 20,0 km/h (4 Bft) S-SO 160 5 min
15.10.2018 13:20 24,5 C 24,2 C 10,8 C 38 % 46 % 1010,6 hPa 0,0 l/m 18,2 km/h (3 Bft) S-SW 200 5 min
15.10.2018 13:25 24,6 C 24,3 C 10,8 C 38 % 45 % 1010,6 hPa 0,0 l/m 16,3 km/h (3 Bft) S-SO 155 5 min
15.10.2018 13:30 24,7 C 24,4 C 10,8 C 38 % 46 % 1010,6 hPa 0,0 l/m 15,7 km/h (3 Bft) S 175 2 min
15.10.2018 13:35 24,9 C 24,6 C 10,8 C 37 % 45 % 1009,6 hPa 0,0 l/m 12,1 km/h (2 Bft) SO 130 6 min
15.10.2018 13:40 24,8 C 24,6 C 10,8 C 37 % 45 % 1009,6 hPa 0,0 l/m 15,1 km/h (3 Bft) SW 225 7 min
15.10.2018 13:45 24,5 C 24,6 C 10,8 C 37 % 45 % 1009,6 hPa 0,0 l/m 19,4 km/h (3 Bft) SO 145 2 min
15.10.2018 13:50 24,8 C 24,6 C 10,8 C 37 % 45 % 1009,6 hPa 0,0 l/m 15,7 km/h (3 Bft) SW 220 8 min
15.10.2018 13:55 24,9 C 24,8 C 10,8 C 37 % 45 % 1009,6 hPa 0,0 l/m 18,8 km/h (3 Bft) S 175 3 min
15.10.2018 14:00 25,2 C 24,8 C 10,8 C 37 % 44 % 1009,6 hPa 0,0 l/m 19,4 km/h (3 Bft) S-SO 160 5 min
15.10.2018 14:05 25,0 C 24,8 C 10,8 C 37 % 44 % 1009,6 hPa 0,0 l/m 16,3 km/h (3 Bft) W 270 7 min
15.10.2018 14:10 25,1 C 24,8 C 10,8 C 37 % 44 % 1009,6 hPa 0,0 l/m 11,5 km/h (2 Bft) S-SW 195 5 min
15.10.2018 14:15 25,2 C 24,7 C 10,8 C 37 % 45 % 1009,6 hPa 0,0 l/m 10,3 km/h (2 Bft) SO 130 3 min
15.10.2018 14:20 25,2 C 24,9 C 10,8 C 37 % 45 % 1009,6 hPa 0,0 l/m 24,2 km/h (4 Bft) W-SW 245 7 min
15.10.2018 14:25 25,3 C 24,9 C 10,8 C 37 % 44 % 1009,6 hPa 0,0 l/m 20,0 km/h (4 Bft) SO 140 3 min
15.10.2018 14:30 25,1 C 25,0 C 10,8 C 37 % 44 % 1009,6 hPa 0,0 l/m 20,6 km/h (4 Bft) S 180 5 min
15.10.2018 14:35 25,2 C 25,1 C 10,8 C 37 % 44 % 1009,6 hPa 0,0 l/m 19,4 km/h (3 Bft) S-SW 195 4 min
15.10.2018 14:40 25,5 C 25,0 C 10,8 C 36 % 44 % 1009,6 hPa 0,0 l/m 18,2 km/h (3 Bft) SW 220 6 min
15.10.2018 14:45 25,3 C 25,2 C 10,8 C 36 % 43 % 1009,6 hPa 0,0 l/m 18,2 km/h (3 Bft) S 170 4 min
15.10.2018 14:50 25,5 C 25,3 C 10,8 C 36 % 44 % 1009,6 hPa 0,0 l/m 13,9 km/h (3 Bft) SW 230 6 min
15.10.2018 14:55 25,3 C 25,3 C 10,8 C 36 % 43 % 1009,6 hPa 0,0 l/m 16,9 km/h (3 Bft) S-SW 200 4 min
15.10.2018 15:00 25,6 C 25,2 C 10,8 C 36 % 43 % 1009,6 hPa 0,0 l/m 12,7 km/h (3 Bft) W-SW 245 5 min
15.10.2018 15:05 25,9 C 25,2 C 10,8 C 36 % 44 % 1009,6 hPa 0,0 l/m 14,5 km/h (3 Bft) W 265 5 min
15.10.2018 15:10 25,7 C 25,4 C 10,8 C 36 % 43 % 1009,6 hPa 0,0 l/m 18,2 km/h (3 Bft) S 185 3 min
15.10.2018 15:15 25,7 C 25,4 C 10,8 C 36 % 43 % 1009,6 hPa 0,0 l/m 18,2 km/h (3 Bft) W 265 4 min
15.10.2018 15:20 25,7 C 25,3 C 10,8 C 36 % 44 % 1009,6 hPa 0,0 l/m 15,7 km/h (3 Bft) W-SW 240 5 min
15.10.2018 15:25 25,6 C 25,3 C 10,8 C 36 % 44 % 1009,6 hPa 0,0 l/m 13,3 km/h (3 Bft) S-SW 205 6 min
15.10.2018 15:30 25,9 C 25,4 C 10,8 C 36 % 44 % 1009,6 hPa 0,0 l/m 13,9 km/h (3 Bft) SW 225 4 min
15.10.2018 15:35 26,0 C 25,6 C 10,8 C 36 % 43 % 1009,6 hPa 0,0 l/m 13,9 km/h (3 Bft) S-SO 165 5 min
15.10.2018 15:40 25,9 C 25,7 C 10,8 C 36 % 44 % 1009,6 hPa 0,0 l/m 16,3 km/h (3 Bft) W-SW 240 5 min
15.10.2018 15:45 25,8 C 25,8 C 10,8 C 36 % 43 % 1009,6 hPa 0,0 l/m 14,5 km/h (3 Bft) S-SO 160 6 min
15.10.2018 15:50 26,0 C 25,9 C 10,8 C 36 % 43 % 1009,6 hPa 0,0 l/m 14,5 km/h (3 Bft) W 270 4 min
15.10.2018 15:55 26,3 C 25,7 C 10,8 C 36 % 44 % 1009,6 hPa 0,0 l/m 9,7 km/h (2 Bft) SW 230 5 min
15.10.2018 16:00 26,4 C 25,8 C 10,8 C 36 % 43 % 1009,6 hPa 0,0 l/m 11,5 km/h (2 Bft) W 260 5 min
15.10.2018 16:05 26,1 C 25,7 C 10,8 C 36 % 43 % 1009,6 hPa 0,0 l/m 18,2 km/h (3 Bft) S-SW 200 5 min
15.10.2018 16:10 25,8 C 25,6 C 10,8 C 36 % 43 % 1009,6 hPa 0,0 l/m 14,5 km/h (3 Bft) S-SW 210 5 min
15.10.2018 16:15 25,9 C 25,6 C 10,8 C 35 % 43 % 1009,6 hPa 0,0 l/m 13,3 km/h (3 Bft) S-SW 210 6 min
15.10.2018 16:20 26,1 C 25,5 C 10,8 C 35 % 42 % 1009,6 hPa 0,0 l/m 9,1 km/h (2 Bft) SW 215 5 min
15.10.2018 16:25 25,9 C 25,4 C 10,8 C 36 % 43 % 1009,6 hPa 0,0 l/m 12,1 km/h (2 Bft) S-SW 195 5 min
15.10.2018 16:30 25,9 C 25,3 C 10,8 C 36 % 43 % 1009,6 hPa 0,0 l/m 12,7 km/h (3 Bft) SO 145 5 min
15.10.2018 16:35 25,9 C 25,3 C 10,8 C 36 % 43 % 1009,6 hPa 0,0 l/m 14,5 km/h (3 Bft) S 185 5 min
15.10.2018 16:40 26,1 C 25,3 C 10,8 C 36 % 44 % 1009,6 hPa 0,0 l/m 7,3 km/h (2 Bft) S-SW 205 5 min
15.10.2018 16:45 26,0 C 25,2 C 10,8 C 35 % 44 % 1009,6 hPa 0,0 l/m 9,7 km/h (2 Bft) S 170 4 min
15.10.2018 16:50 26,0 C 25,2 C 10,8 C 35 % 44 % 1010,6 hPa 0,0 l/m 10,3 km/h (2 Bft) SW 215 5 min
15.10.2018 16:55 25,9 C 25,2 C 10,8 C 35 % 43 % 1010,6 hPa 0,0 l/m 13,9 km/h (3 Bft) S 190 5 min
15.10.2018 17:00 25,9 C 25,1 C 10,8 C 35 % 43 % 1010,6 hPa 0,0 l/m 10,9 km/h (2 Bft) SW 235 6 min
15.10.2018 17:05 26,0 C 25,1 C 10,8 C 35 % 43 % 1009,6 hPa 0,0 l/m 7,3 km/h (2 Bft) W-SW 245 5 min
15.10.2018 17:10 26,1 C 25,1 C 10,8 C 35 % 44 % 1009,6 hPa 0,0 l/m 10,3 km/h (2 Bft) W-NW 290 4 min
15.10.2018 17:15 25,9 C 25,0 C 10,8 C 36 % 44 % 1009,6 hPa 0,0 l/m 9,7 km/h (2 Bft) S 170 6 min
15.10.2018 17:20 25,9 C 25,0 C 10,8 C 35 % 44 % 1009,6 hPa 0,0 l/m 8,5 km/h (2 Bft) S-SW 195 4 min
15.10.2018 17:25 25,9 C 25,0 C 10,8 C 35 % 43 % 1009,6 hPa 0,0 l/m 8,5 km/h (2 Bft) N-NW 330 6 min
15.10.2018 17:30 25,9 C 25,0 C 10,8 C 36 % 44 % 1009,6 hPa 0,0 l/m 6,1 km/h (2 Bft) SW 230 4 min
15.10.2018 17:35 25,9 C 24,8 C 10,8 C 35 % 44 % 1009,6 hPa 0,0 l/m 6,1 km/h (2 Bft) S 170 5 min
15.10.2018 17:40 25,8 C 24,8 C 10,8 C 35 % 44 % 1009,6 hPa 0,0 l/m 7,3 km/h (2 Bft) W-SW 250 5 min
15.10.2018 17:45 25,6 C 24,8 C 10,8 C 36 % 44 % 1009,6 hPa 0,0 l/m 9,7 km/h (2 Bft) S 180 3 min
15.10.2018 17:50 25,5 C 24,7 C 10,8 C 35 % 44 % 1010,6 hPa 0,0 l/m 7,3 km/h (2 Bft) S-SO 160 0 min
15.10.2018 17:55 25,3 C 24,6 C 10,8 C 35 % 44 % 1010,6 hPa 0,0 l/m 9,1 km/h (2 Bft) SW 215 0 min
15.10.2018 18:00 25,2 C 24,5 C 10,8 C 36 % 44 % 1010,6 hPa 0,0 l/m 9,1 km/h (2 Bft) S-SW 195 0 min
15.10.2018 18:05 24,9 C 24,4 C 10,8 C 36 % 44 % 1010,6 hPa 0,0 l/m 8,5 km/h (2 Bft) S 190 0 min
15.10.2018 18:10 24,7 C 24,2 C 10,8 C 36 % 44 % 1010,6 hPa 0,0 l/m 6,1 km/h (2 Bft) S 190 0 min
15.10.2018 18:15 24,5 C 24,2 C 10,8 C 37 % 44 % 1010,6 hPa 0,0 l/m 6,7 km/h (2 Bft) S-SW 205 0 min
15.10.2018 18:20 24,4 C 24,0 C 10,8 C 37 % 44 % 1010,6 hPa 0,0 l/m 4,8 km/h (1 Bft) S-SW 195 0 min
15.10.2018 18:25 24,3 C 23,9 C 10,8 C 37 % 45 % 1010,6 hPa 0,0 l/m 6,1 km/h (2 Bft) S-SO 150 0 min
15.10.2018 18:30 24,1 C 23,7 C 10,8 C 37 % 45 % 1010,6 hPa 0,0 l/m 6,7 km/h (2 Bft) SO 145 0 min
15.10.2018 18:35 23,9 C 23,6 C 10,8 C 38 % 45 % 1010,6 hPa 0,0 l/m 7,9 km/h (2 Bft) S-SW 205 0 min
15.10.2018 18:40 23,7 C 23,4 C 10,8 C 38 % 46 % 1010,6 hPa 0,0 l/m 6,1 km/h (2 Bft) S 180 0 min
15.10.2018 18:45 23,5 C 23,2 C 10,8 C 39 % 46 % 1010,6 hPa 0,0 l/m 4,2 km/h (1 Bft) S-SO 155 0 min
15.10.2018 18:50 23,2 C 23,0 C 10,8 C 39 % 46 % 1010,6 hPa 0,0 l/m 4,8 km/h (1 Bft) S 175 0 min
15.10.2018 18:55 23,1 C 22,9 C 10,8 C 40 % 47 % 1010,6 hPa 0,0 l/m 4,2 km/h (1 Bft) S-SO 165 0 min
15.10.2018 19:00 22,9 C 22,8 C 10,8 C 40 % 47 % 1010,6 hPa 0,0 l/m 7,3 km/h (2 Bft) SW 225 0 min
15.10.2018 19:05 22,9 C 22,6 C 10,8 C 40 % 47 % 1010,6 hPa 0,0 l/m 7,3 km/h (2 Bft) S-SO 155 0 min
15.10.2018 19:10 22,7 C 22,4 C 10,8 C 40 % 47 % 1010,6 hPa 0,0 l/m 10,3 km/h (2 Bft) SO 145 0 min
15.10.2018 19:15 22,7 C 22,3 C 10,8 C 40 % 48 % 1010,6 hPa 0,0 l/m 9,7 km/h (2 Bft) S-SO 165 0 min
15.10.2018 19:20 22,6 C 22,2 C 10,8 C 40 % 48 % 1010,6 hPa 0,0 l/m 7,9 km/h (2 Bft) S-SW 195 0 min
15.10.2018 19:25 22,6 C 22,2 C 10,8 C 40 % 48 % 1010,6 hPa 0,0 l/m 8,5 km/h (2 Bft) S-SO 160 0 min
15.10.2018 19:30 22,4 C 22,1 C 10,8 C 41 % 48 % 1010,6 hPa 0,0 l/m 5,4 km/h (2 Bft) S 175 0 min
15.10.2018 19:35 22,3 C 21,9 C 10,8 C 41 % 48 % 1011,6 hPa 0,0 l/m 8,5 km/h (2 Bft) S-SO 160 0 min
15.10.2018 19:40 22,0 C 21,8 C 10,8 C 42 % 49 % 1011,6 hPa 0,0 l/m 6,1 km/h (2 Bft) S 190 0 min
15.10.2018 19:45 21,8 C 21,6 C 10,8 C 42 % 50 % 1011,6 hPa 0,0 l/m 3,6 km/h (1 Bft) S-SO 155 0 min
15.10.2018 19:50 21,6 C 21,4 C 10,8 C 43 % 50 % 1011,6 hPa 0,0 l/m 4,2 km/h (1 Bft) S-SO 165 0 min
15.10.2018 19:55 21,6 C 21,2 C 10,8 C 42 % 50 % 1011,6 hPa 0,0 l/m 8,5 km/h (2 Bft) S 175 0 min
15.10.2018 20:00 21,5 C 20,9 C 10,8 C 42 % 51 % 1011,6 hPa 0,0 l/m 3,6 km/h (1 Bft) NW 315 0 min
15.10.2018 20:05 21,0 C 20,6 C 10,8 C 43 % 52 % 1011,6 hPa 0,0 l/m 5,4 km/h (2 Bft) S-SW 195 0 min
15.10.2018 20:10 20,7 C 20,2 C 10,8 C 44 % 52 % 1011,6 hPa 0,0 l/m 3,0 km/h (1 Bft) S-SW 195 0 min
15.10.2018 20:15 20,5 C 20,1 C 10,8 C 45 % 52 % 1011,6 hPa 0,0 l/m 3,0 km/h (1 Bft) S 190 0 min
15.10.2018 20:20 20,6 C 19,9 C 10,8 C 44 % 53 % 1011,6 hPa 0,0 l/m 6,1 km/h (2 Bft) S 185 0 min
15.10.2018 20:25 20,7 C 19,9 C 10,8 C 44 % 53 % 1011,6 hPa 0,0 l/m 6,1 km/h (2 Bft) S-SO 150 0 min
15.10.2018 20:30 20,6 C 19,8 C 10,8 C 45 % 54 % 1011,6 hPa 0,0 l/m 3,6 km/h (1 Bft) S-SO 150 0 min
15.10.2018 20:35 20,2 C 19,7 C 10,8 C 46 % 55 % 1011,6 hPa 0,0 l/m 3,6 km/h (1 Bft) SO 125 0 min
15.10.2018 20:40 20,1 C 19,5 C 10,8 C 46 % 55 % 1011,6 hPa 0,0 l/m 0,6 km/h (0 Bft) SO 145 0 min
15.10.2018 20:45 19,9 C 19,3 C 10,8 C 47 % 56 % 1011,6 hPa 0,0 l/m 0,0 km/h (0 Bft) O-SO 110 0 min
15.10.2018 20:50 19,5 C 19,0 C 10,8 C 49 % 57 % 1011,7 hPa 0,0 l/m 0,0 km/h (0 Bft) N-NO 30 0 min
15.10.2018 20:55 19,2 C 18,8 C 10,8 C 50 % 58 % 1011,7 hPa 0,0 l/m 0,0 km/h (0 Bft) NO 40 0 min
15.10.2018 21:00 18,9 C 18,7 C 10,8 C 50 % 58 % 1011,7 hPa 0,0 l/m 0,0 km/h (0 Bft) N-NO 25 0 min
15.10.2018 21:05 18,7 C 18,4 C 10,8 C 51 % 59 % 1011,7 hPa 0,0 l/m 0,0 km/h (0 Bft) O-NO 65 0 min
15.10.2018 21:10 18,5 C 18,2 C 10,8 C 52 % 60 % 1011,7 hPa 0,0 l/m 0,6 km/h (0 Bft) O 80 0 min
15.10.2018 21:15 18,2 C 17,9 C 10,8 C 53 % 61 % 1011,7 hPa 0,0 l/m 1,8 km/h (1 Bft) O-SO 115 0 min
15.10.2018 21:20 18,4 C 17,8 C 10,8 C 52 % 61 % 1011,7 hPa 0,0 l/m 2,4 km/h (1 Bft) SO 130 0 min
15.10.2018 21:25 18,5 C 17,7 C 10,8 C 52 % 61 % 1011,7 hPa 0,0 l/m 3,6 km/h (1 Bft) SO 140 0 min
15.10.2018 21:30 18,4 C 17,7 C 10,8 C 52 % 61 % 1011,7 hPa 0,0 l/m 1,8 km/h (1 Bft) O-NO 60 0 min
15.10.2018 21:35 18,1 C 17,8 C 10,8 C 53 % 61 % 1011,7 hPa 0,0 l/m 1,8 km/h (1 Bft) NO 50 0 min
15.10.2018 21:40 17,8 C 17,6 C 10,8 C 54 % 62 % 1011,7 hPa 0,0 l/m 1,2 km/h (1 Bft) O-SO 115 0 min
15.10.2018 21:45 17,6 C 17,4 C 10,8 C 55 % 62 % 1011,7 hPa 0,0 l/m 0,6 km/h (0 Bft) SO 145 0 min
15.10.2018 21:50 17,5 C 17,3 C 10,8 C 55 % 63 % 1012,7 hPa 0,0 l/m 0,0 km/h (0 Bft) O 85 0 min
15.10.2018 21:55 17,5 C 17,2 C 10,8 C 55 % 62 % 1012,7 hPa 0,0 l/m 0,0 km/h (0 Bft) O-SO 110 0 min
15.10.2018 22:00 17,4 C 17,1 C 10,8 C 55 % 63 % 1012,7 hPa 0,0 l/m 2,4 km/h (1 Bft) O-SO 115 0 min
15.10.2018 22:05 17,4 C 16,9 C 10,8 C 56 % 64 % 1012,7 hPa 0,0 l/m 3,6 km/h (1 Bft) SO 140 0 min
15.10.2018 22:10 17,2 C 16,8 C 10,8 C 57 % 65 % 1012,7 hPa 0,0 l/m 4,8 km/h (1 Bft) O-SO 105 0 min
15.10.2018 22:15 17,2 C 16,8 C 10,8 C 58 % 65 % 1012,7 hPa 0,0 l/m 4,8 km/h (1 Bft) SO 130 0 min
15.10.2018 22:20 17,0 C 16,8 C 10,8 C 58 % 65 % 1012,7 hPa 0,0 l/m 0,6 km/h (0 Bft) O 80 0 min
15.10.2018 22:25 16,9 C 16,6 C 10,8 C 58 % 65 % 1012,7 hPa 0,0 l/m 1,2 km/h (1 Bft) O 100 0 min
15.10.2018 22:30 16,7 C 16,6 C 10,8 C 58 % 65 % 1012,7 hPa 0,0 l/m 0,6 km/h (0 Bft) NO 35 0 min
15.10.2018 22:35 16,6 C 16,5 C 10,8 C 58 % 65 % 1011,7 hPa 0,0 l/m 0,0 km/h (0 Bft) N-NO 15 0 min
15.10.2018 22:40 16,4 C 16,2 C 10,8 C 59 % 65 % 1011,7 hPa 0,0 l/m 0,0 km/h (0 Bft) N-NW 345 0 min
15.10.2018 22:45 16,2 C 16,2 C 10,8 C 59 % 65 % 1011,7 hPa 0,0 l/m 0,0 km/h (0 Bft) N 5 0 min
15.10.2018 22:50 16,1 C 15,8 C 10,8 C 59 % 65 % 1011,7 hPa 0,0 l/m 0,0 km/h (0 Bft) N 5 0 min
15.10.2018 22:55 15,9 C 15,7 C 10,8 C 60 % 66 % 1011,7 hPa 0,0 l/m 0,0 km/h (0 Bft) N 10 0 min
15.10.2018 23:00 15,7 C 15,4 C 10,8 C 61 % 66 % 1011,7 hPa 0,0 l/m 0,0 km/h (0 Bft) O 85 0 min
15.10.2018 23:05 15,7 C 15,2 C 10,8 C 61 % 68 % 1012,7 hPa 0,0 l/m 0,0 km/h (0 Bft) O-SO 115 0 min
15.10.2018 23:10 15,9 C 15,1 C 10,8 C 60 % 68 % 1012,7 hPa 0,0 l/m 4,8 km/h (1 Bft) O 95 0 min
15.10.2018 23:15 16,1 C 15,2 C 10,8 C 59 % 68 % 1012,7 hPa 0,0 l/m 2,4 km/h (1 Bft) O-SO 115 0 min
15.10.2018 23:20 16,2 C 15,3 C 10,8 C 58 % 68 % 1012,7 hPa 0,0 l/m 4,2 km/h (1 Bft) SO 125 0 min
15.10.2018 23:25 16,3 C 15,4 C 10,8 C 58 % 67 % 1012,7 hPa 0,0 l/m 4,2 km/h (1 Bft) O-SO 120 0 min
15.10.2018 23:30 16,3 C 15,6 C 10,8 C 58 % 67 % 1012,7 hPa 0,0 l/m 4,8 km/h (1 Bft) O 95 0 min
15.10.2018 23:35 16,4 C 15,6 C 10,8 C 57 % 66 % 1012,7 hPa 0,0 l/m 6,1 km/h (2 Bft) O-SO 105 0 min
15.10.2018 23:40 16,2 C 15,6 C 10,8 C 58 % 66 % 1012,7 hPa 0,0 l/m 3,6 km/h (1 Bft) O-SO 120 0 min
15.10.2018 23:45 16,1 C 15,4 C 10,8 C 58 % 66 % 1012,7 hPa 0,0 l/m 0,0 km/h (0 Bft) NO 55 0 min
15.10.2018 23:50 15,8 C 15,1 C 10,8 C 59 % 66 % 1012,7 hPa 0,0 l/m 0,0 km/h (0 Bft) SO 125 0 min
15.10.2018 23:55 15,7 C 14,9 C 10,8 C 59 % 66 % 1012,7 hPa 0,0 l/m 0,0 km/h (0 Bft) SO 125 0 min
_ Min-Zeit 23:00 23:55 00:00 16:15 16:20 00:00 - 20:45 - - -
Minimum _ 15,7 C 14,9 C 10,8 C 35 % 42 % 1006,6 hPa - 0,0 km/h (0 Bft) - - -
_ Max-Zeit 16:00 15:50 00:00 23:00 23:05 23:05 00:00 10:30 - - 11:00
Maximum _ 26,4 C 25,9 C 10,8 C 61 % 68 % 1012,7 hPa 0,0 l/m 24,2 km/h
SO (4 Bft)
- - 8 min
Durchschnitt _ 20,7 C 20,4 C 10,8 C 47 % 55 % 1009,4 hPa #0,0 l/m 10,4 km/h (2 Bft) SO - #7:37 h